Time,TemperatureF,DewpointF,PressureIn,WindDirection,WindDirectionDegrees,WindSpeedMPH,WindSpeedGustMPH,Humidity,HourlyPrecipIn,Conditions,Clouds,dailyrainin,SoftwareType,DateUTC
2013-07-11 00:01:00,74.0,69.5,29.83,NW,305,0.0,0.0,86,0.00,,,0.00,Wunderground v.1.15,2013-07-11 04:01:00,
2013-07-11 00:06:00,73.5,67.7,29.83,NW,305,0.0,0.0,82,0.00,,,0.00,Wunderground v.1.15,2013-07-11 04:06:00,
2013-07-11 00:07:00,73.5,67.7,29.83,NW,305,0.0,0.0,82,0.00,,,0.00,Wunderground v.1.15,2013-07-11 04:07:00,
2013-07-11 00:09:00,73.5,67.7,29.83,NW,305,0.0,0.0,82,0.00,,,0.00,Wunderground v.1.15,2013-07-11 04:09:00,
2013-07-11 00:14:00,73.4,68.3,29.83,NW,305,0.0,0.0,84,0.00,,,0.00,Wunderground v.1.15,2013-07-11 04:14:00,
2013-07-11 00:20:00,73.3,68.9,29.83,NW,305,0.0,0.0,86,0.00,,,0.00,Wunderground v.1.15,2013-07-11 04:20:00,
2013-07-11 00:25:00,73.0,68.6,29.83,NW,305,0.0,1.0,86,0.00,,,0.00,Wunderground v.1.15,2013-07-11 04:25:00,
2013-07-11 00:30:00,72.8,67.3,29.83,NW,305,0.0,1.0,83,0.00,,,0.00,Wunderground v.1.15,2013-07-11 04:30:00,
2013-07-11 00:36:00,73.0,67.2,29.82,NW,305,0.0,0.0,82,0.00,,,0.00,Wunderground v.1.15,2013-07-11 04:36:00,
2013-07-11 00:42:00,72.9,67.4,29.82,NW,305,0.0,0.0,83,0.00,,,0.00,Wunderground v.1.15,2013-07-11 04:42:00,
2013-07-11 00:47:00,72.8,67.0,29.82,NW,305,0.0,0.0,82,0.00,,,0.00,Wunderground v.1.15,2013-07-11 04:47:00,
2013-07-11 00:52:00,72.8,67.3,29.82,NW,305,0.0,0.0,83,0.00,,,0.00,Wunderground v.1.15,2013-07-11 04:52:00,
2013-07-11 00:59:00,72.8,67.3,29.82,NW,305,0.0,0.0,83,0.00,,,0.00,Wunderground v.1.15,2013-07-11 04:59:00,
2013-07-11 01:04:00,72.7,67.6,29.82,NW,305,0.0,0.0,84,0.00,,,0.00,Wunderground v.1.15,2013-07-11 05:04:00,
2013-07-11 01:10:00,72.6,67.1,29.82,NW,305,0.0,0.0,83,0.00,,,0.00,Wunderground v.1.15,2013-07-11 05:10:00,
2013-07-11 01:16:00,72.5,67.0,29.82,NW,305,0.0,0.0,83,0.00,,,0.00,Wunderground v.1.15,2013-07-11 05:16:00,
2013-07-11 01:21:00,72.4,67.6,29.82,NW,305,0.0,0.0,85,0.00,,,0.00,Wunderground v.1.15,2013-07-11 05:21:00,
2013-07-11 01:27:00,72.5,68.1,29.82,NW,305,0.0,0.0,86,0.00,,,0.00,Wunderground v.1.15,2013-07-11 05:27:00,
2013-07-11 01:35:00,72.8,68.7,29.83,NW,305,0.0,0.0,87,0.00,,,0.00,Wunderground v.1.15,2013-07-11 05:35:00,
2013-07-11 01:41:00,72.8,69.0,29.83,NW,305,0.0,0.0,88,0.00,,,0.00,Wunderground v.1.15,2013-07-11 05:41:00,
2013-07-11 01:46:00,72.8,69.0,29.83,NW,305,0.0,0.0,88,0.00,,,0.00,Wunderground v.1.15,2013-07-11 05:46:00,
2013-07-11 01:51:00,72.7,68.9,29.83,NW,305,0.0,0.0,88,0.00,,,0.00,Wunderground v.1.15,2013-07-11 05:51:00,
2013-07-11 01:57:00,72.7,68.9,29.83,NW,305,0.0,0.0,88,0.00,,,0.00,Wunderground v.1.15,2013-07-11 05:57:00,
2013-07-11 02:04:00,72.8,69.0,29.83,NW,305,0.0,0.0,88,0.00,,,0.00,Wunderground v.1.15,2013-07-11 06:04:00,
2013-07-11 02:09:00,72.9,69.1,29.83,NW,305,0.0,0.0,88,0.00,,,0.00,Wunderground v.1.15,2013-07-11 06:09:00,
2013-07-11 02:14:00,73.0,69.6,29.83,NW,305,0.0,0.0,89,0.00,,,0.00,Wunderground v.1.15,2013-07-11 06:14:00,
2013-07-11 02:22:00,73.0,69.2,29.83,NW,305,0.0,0.0,88,0.00,,,0.00,Wunderground v.1.15,2013-07-11 06:22:00,
2013-07-11 02:28:00,72.8,69.4,29.83,NW,305,0.0,0.0,89,0.00,,,0.00,Wunderground v.1.15,2013-07-11 06:28:00,
2013-07-11 02:37:00,72.7,69.3,29.83,NW,305,0.0,0.0,89,0.00,,,0.00,Wunderground v.1.15,2013-07-11 06:37:00,
2013-07-11 02:42:00,72.6,69.2,29.83,NW,305,0.0,0.0,89,0.00,,,0.00,Wunderground v.1.15,2013-07-11 06:42:00,
2013-07-11 02:47:00,72.5,69.1,29.83,NW,305,0.0,0.0,89,0.00,,,0.00,Wunderground v.1.15,2013-07-11 06:47:00,
2013-07-11 02:53:00,72.5,69.4,29.83,NW,305,0.0,0.0,90,0.00,,,0.00,Wunderground v.1.15,2013-07-11 06:53:00,
2013-07-11 03:00:00,72.6,69.5,29.82,NW,305,0.0,0.0,90,0.00,,,0.00,Wunderground v.1.15,2013-07-11 07:00:00,
2013-07-11 03:06:00,72.6,69.5,29.83,NW,305,0.0,0.0,90,0.00,,,0.00,Wunderground v.1.15,2013-07-11 07:06:00,
2013-07-11 03:12:00,72.5,69.4,29.83,NW,305,0.0,0.0,90,0.00,,,0.00,Wunderground v.1.15,2013-07-11 07:12:00,
2013-07-11 03:19:00,72.2,69.4,29.83,NW,305,0.0,0.0,91,0.00,,,0.00,Wunderground v.1.15,2013-07-11 07:19:00,
2013-07-11 03:25:00,71.9,69.1,29.83,NW,305,0.0,0.0,91,0.00,,,0.00,Wunderground v.1.15,2013-07-11 07:25:00,
2013-07-11 03:31:00,71.7,69.3,29.83,NW,305,0.0,0.0,92,0.00,,,0.00,Wunderground v.1.15,2013-07-11 07:31:00,
2013-07-11 03:37:00,71.7,69.3,29.83,NW,305,0.0,0.0,92,0.00,,,0.00,Wunderground v.1.15,2013-07-11 07:37:00,
2013-07-11 03:42:00,71.6,69.2,29.83,NW,305,0.0,0.0,92,0.00,,,0.00,Wunderground v.1.15,2013-07-11 07:42:00,
2013-07-11 03:49:00,71.6,69.2,29.83,NW,305,0.0,0.0,92,0.00,,,0.00,Wunderground v.1.15,2013-07-11 07:49:00,
2013-07-11 03:55:00,71.5,69.1,29.83,NW,305,0.0,0.0,92,0.00,,,0.00,Wunderground v.1.15,2013-07-11 07:55:00,
2013-07-11 04:01:00,71.4,69.0,29.83,NW,305,0.0,0.0,92,0.00,,,0.00,Wunderground v.1.15,2013-07-11 08:01:00,
2013-07-11 04:07:00,71.4,69.0,29.83,NW,305,0.0,0.0,92,0.00,,,0.00,Wunderground v.1.15,2013-07-11 08:07:00,
2013-07-11 04:13:00,71.4,69.0,29.83,NW,305,0.0,0.0,92,0.00,,,0.00,Wunderground v.1.15,2013-07-11 08:13:00,
2013-07-11 04:18:00,71.4,69.0,29.83,NW,305,0.0,0.0,92,0.00,,,0.00,Wunderground v.1.15,2013-07-11 08:18:00,
2013-07-11 04:24:00,71.3,68.9,29.83,NW,305,0.0,0.0,92,0.00,,,0.00,Wunderground v.1.15,2013-07-11 08:24:00,
2013-07-11 04:29:00,71.1,68.7,29.83,NW,305,0.0,0.0,92,0.00,,,0.00,Wunderground v.1.15,2013-07-11 08:29:00,
2013-07-11 04:34:00,70.9,68.8,29.83,NW,305,0.0,0.0,93,0.00,,,0.00,Wunderground v.1.15,2013-07-11 08:34:00,
2013-07-11 04:42:00,70.6,68.5,29.83,NW,305,0.0,0.0,93,0.00,,,0.00,Wunderground v.1.15,2013-07-11 08:42:00,
2013-07-11 04:51:00,70.3,67.9,29.83,NW,305,0.0,0.0,92,0.00,,,0.00,Wunderground v.1.15,2013-07-11 08:51:00,
2013-07-11 04:57:00,70.1,67.7,29.84,NW,305,0.0,0.0,92,0.00,,,0.00,Wunderground v.1.15,2013-07-11 08:57:00,
2013-07-11 05:02:00,70.1,67.7,29.83,NW,305,0.0,0.0,92,0.00,,,0.00,Wunderground v.1.15,2013-07-11 09:02:00,
2013-07-11 05:08:00,70.1,67.3,29.83,NW,305,0.0,0.0,91,0.00,,,0.00,Wunderground v.1.15,2013-07-11 09:08:00,
2013-07-11 05:14:00,70.1,67.3,29.83,NW,305,0.0,0.0,91,0.00,,,0.00,Wunderground v.1.15,2013-07-11 09:14:00,
2013-07-11 05:20:00,70.1,67.0,29.84,NW,305,0.0,0.0,90,0.00,,,0.00,Wunderground v.1.15,2013-07-11 09:20:00,
2013-07-11 05:27:00,70.1,66.7,29.84,NW,305,0.0,1.0,89,0.00,,,0.00,Wunderground v.1.15,2013-07-11 09:27:00,
2013-07-11 05:32:00,70.2,66.8,29.84,NW,305,0.0,0.0,89,0.00,,,0.00,Wunderground v.1.15,2013-07-11 09:32:00,
2013-07-11 05:38:00,70.0,66.6,29.84,NW,305,0.0,0.0,89,0.00,,,0.00,Wunderground v.1.15,2013-07-11 09:38:00,
2013-07-11 05:43:00,70.0,66.6,29.84,NW,305,0.0,0.0,89,0.00,,,0.00,Wunderground v.1.15,2013-07-11 09:43:00,
2013-07-11 05:49:00,70.2,66.5,29.84,NW,305,0.0,1.0,88,0.00,,,0.00,Wunderground v.1.15,2013-07-11 09:49:00,
2013-07-11 05:55:00,70.3,66.6,29.85,NW,305,0.0,1.0,88,0.00,,,0.00,Wunderground v.1.15,2013-07-11 09:55:00,
2013-07-11 06:00:00,70.4,66.3,29.85,NW,305,0.0,1.0,87,0.00,,,0.00,Wunderground v.1.15,2013-07-11 10:00:00,
2013-07-11 06:07:00,70.6,66.2,29.85,NW,305,0.0,1.0,86,0.00,,,0.00,Wunderground v.1.15,2013-07-11 10:07:00,
2013-07-11 06:13:00,70.6,66.2,29.85,NW,305,0.0,1.0,86,0.00,,,0.00,Wunderground v.1.15,2013-07-11 10:13:00,
2013-07-11 06:20:00,71.0,65.9,29.86,WNW,298,1.0,3.0,84,0.00,,,0.00,Wunderground v.1.15,2013-07-11 10:20:00,
2013-07-11 06:25:00,71.3,66.2,29.86,WNW,298,1.0,4.0,84,0.00,,,0.00,Wunderground v.1.15,2013-07-11 10:25:00,
2013-07-11 06:31:00,71.2,66.1,29.86,WNW,298,1.0,1.0,84,0.00,,,0.00,Wunderground v.1.15,2013-07-11 10:31:00,
2013-07-11 06:36:00,71.2,66.1,29.86,NW,310,0.0,2.0,84,0.00,,,0.00,Wunderground v.1.15,2013-07-11 10:36:00,
2013-07-11 06:42:00,71.0,66.3,29.86,NW,310,1.0,1.0,85,0.00,,,0.00,Wunderground v.1.15,2013-07-11 10:42:00,
2013-07-11 06:47:00,70.9,66.2,29.87,NW,312,0.0,4.0,85,0.00,,,0.00,Wunderground v.1.15,2013-07-11 10:47:00,
2013-07-11 06:54:00,71.1,66.4,29.87,NW,309,0.0,0.0,85,0.00,,,0.00,Wunderground v.1.15,2013-07-11 10:54:00,
2013-07-11 06:59:00,71.3,66.2,29.88,NW,309,1.0,2.0,84,0.00,,,0.00,Wunderground v.1.15,2013-07-11 10:59:00,
2013-07-11 07:04:00,71.5,66.4,29.88,NW,309,1.0,1.0,84,0.00,,,0.00,Wunderground v.1.15,2013-07-11 11:04:00,
2013-07-11 07:10:00,71.6,66.2,29.88,NW,309,1.0,1.0,83,0.00,,,0.00,Wunderground v.1.15,2013-07-11 11:10:00,
2013-07-11 07:16:00,71.6,66.2,29.88,NW,309,1.0,1.0,83,0.00,,,0.00,Wunderground v.1.15,2013-07-11 11:16:00,
2013-07-11 07:22:00,71.7,66.3,29.88,NW,309,1.0,1.0,83,0.00,,,0.00,Wunderground v.1.15,2013-07-11 11:22:00,
2013-07-11 07:28:00,71.8,66.4,29.89,NW,309,1.0,3.0,83,0.00,,,0.00,Wunderground v.1.15,2013-07-11 11:28:00,
2013-07-11 07:33:00,71.8,66.4,29.89,NW,315,1.0,4.0,83,0.00,,,0.00,Wunderground v.1.15,2013-07-11 11:33:00,
2013-07-11 07:39:00,71.9,66.5,29.89,WNW,294,2.0,5.0,83,0.00,,,0.00,Wunderground v.1.15,2013-07-11 11:39:00,
2013-07-11 07:44:00,71.7,66.3,29.89,WNW,292,2.0,3.0,83,0.00,,,0.00,Wunderground v.1.15,2013-07-11 11:44:00,
2013-07-11 07:51:00,71.6,66.5,29.89,WNW,298,2.0,2.0,84,0.00,,,0.00,Wunderground v.1.15,2013-07-11 11:51:00,
2013-07-11 07:58:00,71.7,66.3,29.89,WNW,301,2.0,2.0,83,0.00,,,0.00,Wunderground v.1.15,2013-07-11 11:58:00,
2013-07-11 08:05:00,72.0,66.2,29.90,NW,317,2.0,2.0,82,0.00,,,0.00,Wunderground v.1.15,2013-07-11 12:05:00,
2013-07-11 08:11:00,72.4,66.2,29.90,NW,317,1.0,1.0,81,0.00,,,0.00,Wunderground v.1.15,2013-07-11 12:11:00,
2013-07-11 08:16:00,72.7,66.2,29.90,NW,317,1.0,1.0,80,0.00,,,0.00,Wunderground v.1.15,2013-07-11 12:16:00,
2013-07-11 08:23:00,72.6,66.4,29.90,NW,317,0.0,2.0,81,0.00,,,0.00,Wunderground v.1.15,2013-07-11 12:23:00,
2013-07-11 08:28:00,72.6,66.8,29.90,NW,317,0.0,2.0,82,0.00,,,0.00,Wunderground v.1.15,2013-07-11 12:28:00,
2013-07-11 08:39:00,73.2,67.0,29.90,NW,317,0.0,1.0,81,0.00,,,0.00,Wunderground v.1.15,2013-07-11 12:39:00,
2013-07-11 08:45:00,73.7,66.8,29.90,NW,318,0.0,0.0,79,0.00,,,0.00,Wunderground v.1.15,2013-07-11 12:45:00,
2013-07-11 08:52:00,74.0,66.7,29.90,NNW,329,0.0,0.0,78,0.00,,,0.00,Wunderground v.1.15,2013-07-11 12:52:00,
2013-07-11 08:59:00,74.1,66.8,29.90,NNW,329,0.0,0.0,78,0.00,,,0.00,Wunderground v.1.15,2013-07-11 12:59:00,
2013-07-11 09:07:00,74.1,67.2,29.90,NW,304,0.0,0.0,79,0.00,,,0.00,Wunderground v.1.15,2013-07-11 13:07:00,
2013-07-11 09:12:00,74.0,66.7,29.90,East,101,0.0,1.0,78,0.00,,,0.00,Wunderground v.1.15,2013-07-11 13:12:00,
2013-07-11 09:19:00,74.0,66.7,29.90,North,5,1.0,1.0,78,0.00,,,0.00,Wunderground v.1.15,2013-07-11 13:19:00,
2013-07-11 09:24:00,74.4,67.1,29.90,North,5,0.0,2.0,78,0.00,,,0.00,Wunderground v.1.15,2013-07-11 13:24:00,
2013-07-11 09:29:00,74.2,66.9,29.90,NNW,333,1.0,4.0,78,0.00,,,0.00,Wunderground v.1.15,2013-07-11 13:29:00,
2013-07-11 09:36:00,74.0,67.1,29.90,NW,317,1.0,2.0,79,0.00,,,0.00,Wunderground v.1.15,2013-07-11 13:36:00,
2013-07-11 09:41:00,74.1,67.5,29.90,WNW,298,1.0,1.0,80,0.00,,,0.00,Wunderground v.1.15,2013-07-11 13:41:00,
2013-07-11 09:46:00,74.2,67.3,29.90,WNW,298,1.0,1.0,79,0.00,,,0.00,Wunderground v.1.15,2013-07-11 13:46:00,
2013-07-11 09:55:00,75.4,68.1,29.90,NW,317,1.0,3.0,78,0.00,,,0.00,Wunderground v.1.15,2013-07-11 13:55:00,
2013-07-11 10:01:00,76.0,67.9,29.90,WNW,300,2.0,6.0,76,0.00,,,0.00,Wunderground v.1.15,2013-07-11 14:01:00,
2013-07-11 10:06:00,76.0,67.5,29.90,NW,321,3.0,6.0,75,0.00,,,0.00,Wunderground v.1.15,2013-07-11 14:06:00,
2013-07-11 10:12:00,76.6,68.5,29.90,NW,321,2.0,4.0,76,0.00,,,0.00,Wunderground v.1.15,2013-07-11 14:12:00,
2013-07-11 10:18:00,77.5,69.3,29.90,West,281,1.0,4.0,76,0.00,,,0.00,Wunderground v.1.15,2013-07-11 14:18:00,
2013-07-11 10:25:00,77.3,68.4,29.90,NW,320,3.0,6.0,74,0.00,,,0.00,Wunderground v.1.15,2013-07-11 14:25:00,
2013-07-11 10:32:00,77.3,67.6,29.90,North,355,2.0,2.0,72,0.00,,,0.00,Wunderground v.1.15,2013-07-11 14:32:00,
2013-07-11 10:37:00,77.8,68.0,29.90,NW,319,2.0,8.0,72,0.00,,,0.00,Wunderground v.1.15,2013-07-11 14:37:00,
2013-07-11 10:44:00,78.1,68.3,29.90,NNW,329,3.0,4.0,72,0.00,,,0.00,Wunderground v.1.15,2013-07-11 14:44:00,
2013-07-11 10:50:00,79.0,69.2,29.90,NNW,333,3.0,5.0,72,0.00,,,0.00,Wunderground v.1.15,2013-07-11 14:50:00,
2013-07-11 10:56:00,79.3,69.1,29.90,NW,312,1.0,4.0,71,0.00,,,0.00,Wunderground v.1.15,2013-07-11 14:56:00,
2013-07-11 11:02:00,79.1,70.1,29.90,West,265,2.0,7.0,74,0.00,,,0.00,Wunderground v.1.15,2013-07-11 15:02:00,
2013-07-11 11:09:00,78.4,68.6,29.90,WNW,303,4.0,7.0,72,0.00,,,0.00,Wunderground v.1.15,2013-07-11 15:09:00,
2013-07-11 11:14:00,78.1,68.3,29.90,WNW,296,5.0,6.0,72,0.00,,,0.00,Wunderground v.1.15,2013-07-11 15:14:00,
2013-07-11 11:20:00,79.1,70.5,29.90,NW,318,4.0,4.0,75,0.00,,,0.00,Wunderground v.1.15,2013-07-11 15:20:00,
2013-07-11 11:26:00,79.8,68.7,29.90,NNW,331,3.0,6.0,69,0.00,,,0.00,Wunderground v.1.15,2013-07-11 15:26:00,
2013-07-11 11:34:00,79.5,69.3,29.90,WNW,295,3.0,7.0,71,0.00,,,0.00,Wunderground v.1.15,2013-07-11 15:34:00,
2013-07-11 11:40:00,78.5,68.3,29.90,WNW,298,3.0,3.0,71,0.00,,,0.00,Wunderground v.1.15,2013-07-11 15:40:00,
2013-07-11 11:46:00,79.1,69.3,29.90,NNW,337,1.0,3.0,72,0.00,,,0.00,Wunderground v.1.15,2013-07-11 15:46:00,
2013-07-11 11:51:00,79.8,69.1,29.90,North,355,1.0,2.0,70,0.00,,,0.00,Wunderground v.1.15,2013-07-11 15:51:00,
2013-07-11 11:59:00,80.2,69.1,29.90,North,355,1.0,2.0,69,0.00,,,0.00,Wunderground v.1.15,2013-07-11 15:59:00,
2013-07-11 12:07:00,80.1,69.0,29.90,WNW,283,1.0,2.0,69,0.00,,,0.00,Wunderground v.1.15,2013-07-11 16:07:00,
2013-07-11 12:13:00,79.4,68.3,29.90,NW,309,2.0,2.0,69,0.00,,,0.00,Wunderground v.1.15,2013-07-11 16:13:00,
2013-07-11 12:20:00,79.7,69.9,29.90,NW,305,2.0,3.0,72,0.00,,,0.00,Wunderground v.1.15,2013-07-11 16:20:00,
2013-07-11 12:27:00,79.8,68.7,29.90,NNW,335,2.0,3.0,69,0.00,,,0.00,Wunderground v.1.15,2013-07-11 16:27:00,
2013-07-11 12:32:00,79.6,69.8,29.90,NW,318,2.0,3.0,72,0.00,,,0.00,Wunderground v.1.15,2013-07-11 16:32:00,
2013-07-11 12:38:00,79.8,70.0,29.90,WNW,298,3.0,3.0,72,0.00,,,0.00,Wunderground v.1.15,2013-07-11 16:38:00,
2013-07-11 12:44:00,80.3,69.6,29.90,WNW,283,3.0,5.0,70,0.00,,,0.00,Wunderground v.1.15,2013-07-11 16:44:00,
2013-07-11 12:49:00,80.5,68.1,29.90,NW,311,3.0,5.0,66,0.00,,,0.00,Wunderground v.1.15,2013-07-11 16:49:00,
2013-07-11 12:55:00,81.5,70.3,29.90,WNW,287,3.0,6.0,69,0.00,,,0.00,Wunderground v.1.15,2013-07-11 16:55:00,
2013-07-11 13:06:00,82.7,68.8,29.89,NNE,13,1.0,1.0,63,0.00,,,0.00,Wunderground v.1.15,2013-07-11 17:06:00,
2013-07-11 13:12:00,82.2,69.7,29.89,WNW,301,1.0,5.0,66,0.00,,,0.00,Wunderground v.1.15,2013-07-11 17:12:00,
2013-07-11 13:17:00,81.4,69.4,29.89,WNW,294,2.0,5.0,67,0.00,,,0.00,Wunderground v.1.15,2013-07-11 17:17:00,
2013-07-11 13:22:00,81.3,68.9,29.89,NW,311,2.0,2.0,66,0.00,,,0.00,Wunderground v.1.15,2013-07-11 17:22:00,
2013-07-11 13:29:00,79.7,69.0,29.89,NW,309,2.0,3.0,70,0.00,,,0.00,Wunderground v.1.15,2013-07-11 17:29:00,
2013-07-11 13:36:00,78.8,68.2,29.89,NW,323,2.0,3.0,70,0.00,,,0.00,Wunderground v.1.15,2013-07-11 17:36:00,
2013-07-11 13:43:00,79.3,69.5,29.89,NNW,338,1.0,2.0,72,0.00,,,0.00,Wunderground v.1.15,2013-07-11 17:43:00,
2013-07-11 13:49:00,80.8,69.2,29.89,NNW,340,1.0,2.0,68,0.00,,,0.00,Wunderground v.1.15,2013-07-11 17:49:00,
2013-07-11 13:56:00,81.9,67.6,29.89,WNW,294,2.0,6.0,62,0.00,,,0.00,Wunderground v.1.15,2013-07-11 17:56:00,
2013-07-11 14:01:00,82.3,68.0,29.89,North,10,3.0,3.0,62,0.00,,,0.00,Wunderground v.1.15,2013-07-11 18:01:00,
2013-07-11 14:07:00,82.7,67.9,29.89,NW,307,2.0,4.0,61,0.00,,,0.00,Wunderground v.1.15,2013-07-11 18:07:00,
2013-07-11 14:12:00,82.3,69.4,29.89,WNW,303,1.0,5.0,65,0.00,,,0.00,Wunderground v.1.15,2013-07-11 18:12:00,
2013-07-11 14:19:00,82.1,67.8,29.89,NW,318,2.0,5.0,62,0.00,,,0.00,Wunderground v.1.15,2013-07-11 18:19:00,
2013-07-11 14:24:00,81.8,68.4,29.88,NW,323,2.0,5.0,64,0.00,,,0.00,Wunderground v.1.15,2013-07-11 18:24:00,
2013-07-11 14:31:00,82.1,68.7,29.88,NW,316,2.0,2.0,64,0.00,,,0.00,Wunderground v.1.15,2013-07-11 18:31:00,
2013-07-11 14:38:00,81.8,68.9,29.88,NNW,339,1.0,2.0,65,0.00,,,0.00,Wunderground v.1.15,2013-07-11 18:38:00,
2013-07-11 14:44:00,81.4,68.1,29.88,North,355,2.0,3.0,64,0.00,,,0.00,Wunderground v.1.15,2013-07-11 18:44:00,
2013-07-11 14:49:00,81.0,68.1,29.88,NNW,338,2.0,3.0,65,0.00,,,0.00,Wunderground v.1.15,2013-07-11 18:49:00,
2013-07-11 14:55:00,81.1,69.5,29.88,NNW,338,1.0,2.0,68,0.00,,,0.00,Wunderground v.1.15,2013-07-11 18:55:00,
2013-07-11 15:00:00,80.9,68.5,29.88,NNW,332,0.0,1.0,66,0.00,,,0.00,Wunderground v.1.15,2013-07-11 19:00:00,
2013-07-11 15:06:00,80.7,68.3,29.87,NNW,341,1.0,2.0,66,0.00,,,0.00,Wunderground v.1.15,2013-07-11 19:06:00,
2013-07-11 15:13:00,81.6,68.7,29.87,North,360,1.0,5.0,65,0.00,,,0.00,Wunderground v.1.15,2013-07-11 19:13:00,
2013-07-11 15:25:00,82.5,67.7,29.87,NNW,342,1.0,1.0,61,0.00,,,0.00,Wunderground v.1.15,2013-07-11 19:25:00,
2013-07-11 15:30:00,82.8,67.5,29.87,North,9,1.0,2.0,60,0.00,,,0.00,Wunderground v.1.15,2013-07-11 19:30:00,
2013-07-11 15:36:00,83.1,69.2,29.86,WNW,291,2.0,5.0,63,0.00,,,0.00,Wunderground v.1.15,2013-07-11 19:36:00,
2013-07-11 15:43:00,82.8,68.0,29.87,NNW,331,1.0,2.0,61,0.00,,,0.00,Wunderground v.1.15,2013-07-11 19:43:00,
2013-07-11 15:49:00,82.9,68.5,29.86,NW,309,1.0,2.0,62,0.00,,,0.00,Wunderground v.1.15,2013-07-11 19:49:00,
2013-07-11 15:55:00,82.8,68.9,29.86,NW,316,1.0,2.0,63,0.00,,,0.00,Wunderground v.1.15,2013-07-11 19:55:00,
2013-07-11 16:02:00,82.5,68.2,29.86,NNW,331,1.0,1.0,62,0.00,,,0.00,Wunderground v.1.15,2013-07-11 20:02:00,
2013-07-11 16:09:00,82.4,68.5,29.86,NW,323,1.0,4.0,63,0.00,,,0.00,Wunderground v.1.15,2013-07-11 20:09:00,
2013-07-11 16:14:00,81.9,68.1,29.86,NNW,327,1.0,3.0,63,0.00,,,0.00,Wunderground v.1.15,2013-07-11 20:14:00,
2013-07-11 16:21:00,82.1,69.2,29.86,NNW,341,1.0,1.0,65,0.00,,,0.00,Wunderground v.1.15,2013-07-11 20:21:00,
2013-07-11 16:27:00,82.2,67.9,29.86,NNW,341,1.0,2.0,62,0.00,,,0.00,Wunderground v.1.15,2013-07-11 20:27:00,
2013-07-11 16:36:00,81.8,68.0,29.86,NNW,342,1.0,2.0,63,0.00,,,0.00,Wunderground v.1.15,2013-07-11 20:36:00,
2013-07-11 16:42:00,81.5,66.8,29.86,NNW,342,0.0,1.0,61,0.00,,,0.00,Wunderground v.1.15,2013-07-11 20:42:00,
2013-07-11 16:48:00,81.5,67.2,29.86,NNW,342,0.0,1.0,62,0.00,,,0.00,Wunderground v.1.15,2013-07-11 20:48:00,
2013-07-11 16:53:00,81.6,67.8,29.85,NNW,342,0.0,0.0,63,0.00,,,0.00,Wunderground v.1.15,2013-07-11 20:53:00,
2013-07-11 16:59:00,81.6,67.3,29.86,NNW,343,0.0,1.0,62,0.00,,,0.00,Wunderground v.1.15,2013-07-11 20:59:00,
2013-07-11 17:07:00,81.4,67.1,29.86,NNW,343,0.0,2.0,62,0.00,,,0.00,Wunderground v.1.15,2013-07-11 21:07:00,
2013-07-11 17:14:00,81.2,66.9,29.86,NNW,343,0.0,1.0,62,0.00,,,0.00,Wunderground v.1.15,2013-07-11 21:14:00,
2013-07-11 17:20:00,80.9,68.0,29.86,NNW,343,0.0,1.0,65,0.00,,,0.00,Wunderground v.1.15,2013-07-11 21:20:00,
2013-07-11 17:26:00,80.7,67.8,29.86,NNW,343,0.0,1.0,65,0.00,,,0.00,Wunderground v.1.15,2013-07-11 21:26:00,
2013-07-11 17:31:00,80.3,68.8,29.86,NNW,343,0.0,0.0,68,0.00,,,0.00,Wunderground v.1.15,2013-07-11 21:31:00,
2013-07-11 17:42:00,80.4,68.4,29.85,NNW,343,0.0,0.0,67,0.00,,,0.00,Wunderground v.1.15,2013-07-11 21:42:00,
2013-07-11 17:47:00,80.7,69.6,29.85,NNW,343,0.0,0.0,69,0.00,,,0.00,Wunderground v.1.15,2013-07-11 21:47:00,
2013-07-11 17:52:00,80.8,67.9,29.85,NNW,343,0.0,1.0,65,0.00,,,0.00,Wunderground v.1.15,2013-07-11 21:52:00,
2013-07-11 17:58:00,80.7,68.7,29.85,NNW,343,0.0,1.0,67,0.00,,,0.00,Wunderground v.1.15,2013-07-11 21:58:00,
2013-07-11 18:04:00,80.6,68.6,29.85,NNW,343,0.0,1.0,67,0.00,,,0.00,Wunderground v.1.15,2013-07-11 22:04:00,
2013-07-11 18:09:00,80.3,68.3,29.85,NNW,343,0.0,1.0,67,0.00,,,0.00,Wunderground v.1.15,2013-07-11 22:09:00,
2013-07-11 18:14:00,80.3,69.2,29.86,NNW,343,0.0,0.0,69,0.00,,,0.00,Wunderground v.1.15,2013-07-11 22:14:00,
2013-07-11 18:21:00,80.3,69.2,29.86,NNW,343,0.0,0.0,69,0.00,,,0.00,Wunderground v.1.15,2013-07-11 22:21:00,
2013-07-11 18:27:00,80.3,69.6,29.86,NNW,343,0.0,0.0,70,0.00,,,0.00,Wunderground v.1.15,2013-07-11 22:27:00,
2013-07-11 18:39:00,80.1,67.7,29.86,NNW,343,0.0,0.0,66,0.00,,,0.00,Wunderground v.1.15,2013-07-11 22:39:00,
2013-07-11 18:46:00,79.9,68.0,29.86,NNW,343,0.0,0.0,67,0.00,,,0.00,Wunderground v.1.15,2013-07-11 22:46:00,
2013-07-11 18:51:00,79.7,68.2,29.86,NNW,343,0.0,0.0,68,0.00,,,0.00,Wunderground v.1.15,2013-07-11 22:51:00,
2013-07-11 18:57:00,79.5,68.4,29.87,NNW,343,0.0,0.0,69,0.00,,,0.00,Wunderground v.1.15,2013-07-11 22:57:00,
2013-07-11 19:03:00,79.5,67.1,29.87,NNW,343,0.0,0.0,66,0.00,,,0.00,Wunderground v.1.15,2013-07-11 23:03:00,
2013-07-11 19:09:00,79.5,67.6,29.87,NNW,343,0.0,1.0,67,0.00,,,0.00,Wunderground v.1.15,2013-07-11 23:09:00,
2013-07-11 19:19:00,79.2,68.1,29.88,NNW,343,0.0,1.0,69,0.00,,,0.00,Wunderground v.1.15,2013-07-11 23:19:00,
2013-07-11 19:24:00,79.1,68.5,29.88,NNW,343,0.0,0.0,70,0.00,,,0.00,Wunderground v.1.15,2013-07-11 23:24:00,
2013-07-11 19:31:00,78.9,68.7,29.87,NNW,343,0.0,0.0,71,0.00,,,0.00,Wunderground v.1.15,2013-07-11 23:31:00,
2013-07-11 19:37:00,79.0,68.0,29.87,NNW,343,0.0,0.0,69,0.00,,,0.00,Wunderground v.1.15,2013-07-11 23:37:00,
2013-07-11 19:44:00,78.9,68.7,29.87,NNW,343,0.0,0.0,71,0.00,,,0.00,Wunderground v.1.15,2013-07-11 23:44:00,
2013-07-11 19:50:00,78.8,68.2,29.87,NNW,343,0.0,0.0,70,0.00,,,0.00,Wunderground v.1.15,2013-07-11 23:50:00,
2013-07-11 19:55:00,78.7,68.1,29.87,NNW,343,0.0,0.0,70,0.00,,,0.00,Wunderground v.1.15,2013-07-11 23:55:00,
2013-07-11 20:01:00,78.7,68.9,29.87,NNW,343,0.0,0.0,72,0.00,,,0.00,Wunderground v.1.15,2013-07-12 00:01:00,
2013-07-11 20:07:00,78.5,68.7,29.87,NNW,343,0.0,1.0,72,0.00,,,0.00,Wunderground v.1.15,2013-07-12 00:07:00,
2013-07-11 20:12:00,78.4,69.8,29.87,NNW,343,0.0,0.0,75,0.00,,,0.00,Wunderground v.1.15,2013-07-12 00:12:00,
2013-07-11 20:21:00,78.0,69.8,29.86,NNW,343,0.0,0.0,76,0.00,,,0.00,Wunderground v.1.15,2013-07-12 00:21:00,
2013-07-11 20:27:00,77.8,68.8,29.86,NNW,343,0.0,0.0,74,0.00,,,0.00,Wunderground v.1.15,2013-07-12 00:27:00,
2013-07-11 20:37:00,77.7,69.1,29.86,NNW,343,0.0,0.0,75,0.00,,,0.00,Wunderground v.1.15,2013-07-12 00:37:00,
2013-07-11 20:42:00,77.5,69.3,29.86,NNW,343,0.0,0.0,76,0.00,,,0.00,Wunderground v.1.15,2013-07-12 00:42:00,
2013-07-11 20:52:00,77.2,69.4,29.86,NNW,343,0.0,0.0,77,0.00,,,0.00,Wunderground v.1.15,2013-07-12 00:52:00,
2013-07-11 20:57:00,76.9,69.5,29.86,NNW,343,0.0,0.0,78,0.00,,,0.00,Wunderground v.1.15,2013-07-12 00:57:00,
2013-07-11 21:03:00,76.7,70.1,29.87,NNW,343,0.0,0.0,80,0.00,,,0.00,Wunderground v.1.15,2013-07-12 01:03:00,
2013-07-11 21:09:00,76.4,70.1,29.87,NNW,343,0.0,0.0,81,0.00,,,0.00,Wunderground v.1.15,2013-07-12 01:09:00,
2013-07-11 21:14:00,76.3,70.0,29.87,NNW,343,0.0,0.0,81,0.00,,,0.00,Wunderground v.1.15,2013-07-12 01:14:00,
2013-07-11 21:19:00,76.5,69.1,29.87,NNW,343,0.0,0.0,78,0.00,,,0.00,Wunderground v.1.15,2013-07-12 01:19:00,
2013-07-11 21:25:00,76.6,67.7,29.87,NNW,343,0.0,2.0,74,0.00,,,0.00,Wunderground v.1.15,2013-07-12 01:25:00,
2013-07-11 21:31:00,76.7,66.2,29.87,SSW,198,1.0,1.0,70,0.00,,,0.00,Wunderground v.1.15,2013-07-12 01:31:00,
2013-07-11 21:36:00,76.8,66.3,29.88,NNW,338,1.0,1.0,70,0.00,,,0.00,Wunderground v.1.15,2013-07-12 01:36:00,
2013-07-11 21:42:00,76.7,66.2,29.88,NW,317,0.0,1.0,70,0.00,,,0.00,Wunderground v.1.15,2013-07-12 01:42:00,
2013-07-11 21:48:00,76.5,66.4,29.88,NNW,336,0.0,1.0,71,0.00,,,0.00,Wunderground v.1.15,2013-07-12 01:48:00,
2013-07-11 21:54:00,76.1,66.8,29.87,NNW,336,0.0,0.0,73,0.00,,,0.00,Wunderground v.1.15,2013-07-12 01:54:00,
2013-07-11 21:59:00,75.8,66.9,29.88,NNW,336,0.0,2.0,74,0.00,,,0.00,Wunderground v.1.15,2013-07-12 01:59:00,
2013-07-11 22:05:00,75.5,67.0,29.88,NNW,336,0.0,0.0,75,0.00,,,0.00,Wunderground v.1.15,2013-07-12 02:05:00,
2013-07-11 22:11:00,75.1,67.0,29.88,NNW,336,0.0,0.0,76,0.00,,,0.00,Wunderground v.1.15,2013-07-12 02:11:00,
2013-07-11 22:16:00,74.9,67.2,29.89,NNW,336,0.0,0.0,77,0.00,,,0.00,Wunderground v.1.15,2013-07-12 02:16:00,
2013-07-11 22:22:00,74.8,67.5,29.89,NNW,336,0.0,0.0,78,0.00,,,0.00,Wunderground v.1.15,2013-07-12 02:22:00,
2013-07-11 22:31:00,74.6,67.7,29.89,NNW,336,0.0,0.0,79,0.00,,,0.00,Wunderground v.1.15,2013-07-12 02:31:00,
2013-07-11 22:37:00,74.4,67.8,29.89,NNW,336,0.0,0.0,80,0.00,,,0.00,Wunderground v.1.15,2013-07-12 02:37:00,
2013-07-11 22:43:00,74.2,66.9,29.89,NNW,336,0.0,0.0,78,0.00,,,0.00,Wunderground v.1.15,2013-07-12 02:43:00,
2013-07-11 22:52:00,74.4,66.0,29.89,NNW,336,0.0,0.0,75,0.00,,,0.00,Wunderground v.1.15,2013-07-12 02:52:00,
2013-07-11 22:57:00,74.6,66.1,29.89,NNW,336,0.0,0.0,75,0.00,,,0.00,Wunderground v.1.15,2013-07-12 02:57:00,
2013-07-11 23:07:00,74.5,66.1,29.88,NNW,336,0.0,1.0,75,0.00,,,0.00,Wunderground v.1.15,2013-07-12 03:07:00,
2013-07-11 23:13:00,74.4,65.2,29.88,NNW,336,0.0,0.0,73,0.00,,,0.00,Wunderground v.1.15,2013-07-12 03:13:00,
2013-07-11 23:19:00,74.4,64.8,29.88,NNW,336,0.0,0.0,72,0.00,,,0.00,Wunderground v.1.15,2013-07-12 03:19:00,
2013-07-11 23:25:00,74.3,65.9,29.89,NNW,336,0.0,0.0,75,0.00,,,0.00,Wunderground v.1.15,2013-07-12 03:25:00,
2013-07-11 23:32:00,73.5,65.1,29.89,NNW,336,0.0,0.0,75,0.00,,,0.00,Wunderground v.1.15,2013-07-12 03:32:00,
2013-07-11 23:38:00,73.3,64.1,29.88,NNW,336,0.0,0.0,73,0.00,,,0.00,Wunderground v.1.15,2013-07-12 03:38:00,
2013-07-11 23:44:00,74.0,64.0,29.87,NNW,336,0.0,0.0,71,0.00,,,0.00,Wunderground v.1.15,2013-07-12 03:44:00,
2013-07-11 23:49:00,74.2,63.8,29.87,NNW,336,0.0,2.0,70,0.00,,,0.00,Wunderground v.1.15,2013-07-12 03:49:00,
2013-07-11 23:55:00,74.2,64.2,29.88,NNW,336,0.0,0.0,71,0.00,,,0.00,Wunderground v.1.15,2013-07-12 03:55:00,